Location: Little Maitland River
(43.8022°N, 81.1549°W)
Time: 15:07:31
(UTC+00:00)

Cosmos 1697 Rocket - Pass Details

Date: 09 December 2025
Orbit: 831 x 843 km, 71.0° (Epoch: 16 January)

Event Time Altitude Azimuth Distance (km) Brightness Sun altitude
Rises 00:44:10 0° 240° (WSW) 3,365 6.7 -31.1°
Reaches altitude 10° 00:47:00 10° 253° (WSW) 2,436 5.9 -31.6°
Maximum altitude 00:51:36 26° 309° (NW) 1,602 4.5 -32.4°
Enters shadow 00:53:38 21° 341° (NNW) 1,801 4.5 -32.8°
